FDX61 LIMC-EGSS

Flight info

Callsign FDX61
Flight time 1h 27m
Altitude 34000
Route AOSTA DCT ORSUD DCT MOLUS DCT IBODI DCT GOTED DCT TRO DCT CLM DCT KOPOR DCT SOSUN DCT SUBIP UM733 BANVA
Aircraft MD11/H-SDE1E2E3FGHIJ2J3J4J5M1RWXY/LB1D1

Departure

Time 2026-05-04 14:10
Airport Milan Malpensa International Airport (LIMC)

Arrival

Time 2026-05-04 15:37
Airport London Stansted Airport (EGSS)
Time Latitude Longitude Altitude Speed Heading
2026-05-04 13:32 45.60941 8.72044 761 ft 0 kts 259°
2026-05-04 13:51 45.60945 8.72072 761 ft 4 kts 256°
2026-05-04 13:51 45.60952 8.72109 761 ft 4 kts 256°
2026-05-04 13:51 45.60957 8.72141 755 ft 4 kts 275°
2026-05-04 13:52 45.60931 8.72178 761 ft 4 kts 350°
2026-05-04 13:52 45.60920 8.72180 761 ft 0 kts 348°
2026-05-04 13:56 45.60924 8.72179 761 ft 1 kts 348°
2026-05-04 13:56 45.60942 8.72174 757 ft 5 kts 348°
2026-05-04 13:56 45.61041 8.72145 761 ft 2 kts 348°
2026-05-04 13:57 45.61081 8.72133 756 ft 9 kts 348°
2026-05-04 13:57 45.61122 8.72162 756 ft 7 kts 52°
2026-05-04 13:58 45.61157 8.72488 755 ft 11 kts 80°
2026-05-04 13:58 45.61239 8.72530 759 ft 10 kts 350°
2026-05-04 13:58 45.61319 8.72509 757 ft 13 kts 349°
2026-05-04 13:59 45.61427 8.72480 755 ft 18 kts 349°
2026-05-04 13:59 45.61566 8.72441 757 ft 23 kts 349°
2026-05-04 13:59 45.61919 8.72344 760 ft 27 kts 349°
2026-05-04 14:00 45.62069 8.72302 757 ft 21 kts 349°
2026-05-04 14:00 45.62408 8.72208 758 ft 29 kts 349°
2026-05-04 14:00 45.62609 8.72152 756 ft 29 kts 348°
2026-05-04 14:01 45.62794 8.72101 756 ft 26 kts 348°
2026-05-04 14:01 45.62960 8.72055 755 ft 23 kts 349°
2026-05-04 14:01 45.63295 8.71963 755 ft 26 kts 349°
2026-05-04 14:02 45.63474 8.71913 755 ft 27 kts 349°
2026-05-04 14:02 45.63659 8.71863 756 ft 28 kts 349°
2026-05-04 14:02 45.63851 8.71812 758 ft 28 kts 349°
2026-05-04 14:02 45.64048 8.71758 755 ft 29 kts 349°
2026-05-04 14:03 45.64250 8.71701 754 ft 29 kts 349°
2026-05-04 14:03 45.64385 8.71664 753 ft 14 kts 348°
2026-05-04 14:03 45.64438 8.71662 756 ft 10 kts 12°
2026-05-04 14:03 45.64477 8.71744 755 ft 9 kts 77°
2026-05-04 14:04 45.64512 8.72002 754 ft 9 kts 88°
2026-05-04 14:04 45.64489 8.72076 753 ft 9 kts 124°
2026-05-04 14:04 45.64447 8.72158 756 ft 12 kts 128°
2026-05-04 14:05 45.64441 8.72371 755 ft 16 kts 79°
2026-05-04 14:05 45.64457 8.72497 755 ft 11 kts 79°
2026-05-04 14:05 45.64472 8.72596 759 ft 9 kts 70°
2026-05-04 14:06 45.64520 8.72646 755 ft 9 kts
2026-05-04 14:06 45.64601 8.72625 755 ft 14 kts 349°
2026-05-04 14:06 45.64700 8.72595 754 ft 15 kts 346°
2026-05-04 14:06 45.64785 8.72571 755 ft 7 kts 357°
2026-05-04 14:07 45.64838 8.72601 754 ft 10 kts 33°
2026-05-04 14:07 45.64892 8.72664 755 ft 9 kts 40°
2026-05-04 14:07 45.64936 8.72718 756 ft 9 kts 41°
2026-05-04 14:07 45.64956 8.72775 757 ft 5 kts 88°
2026-05-04 14:08 45.64943 8.72807 759 ft 3 kts 146°
2026-05-04 14:08 45.64913 8.72822 756 ft 6 kts 166°
2026-05-04 14:08 45.64893 8.72829 759 ft 0 kts 167°
2026-05-04 14:09 45.63988 8.73081 754 ft 142 kts 169°
2026-05-04 14:09 45.62827 8.73386 792 ft 191 kts 172°
2026-05-04 14:10 45.60205 8.74227 2392 ft 193 kts 168°
2026-05-04 14:10 45.58922 8.74756 3292 ft 190 kts 166°
2026-05-04 14:10 45.57623 8.75232 4066 ft 201 kts 168°
2026-05-04 14:10 45.56173 8.75696 4476 ft 218 kts 169°
2026-05-04 14:11 45.54684 8.76157 5252 ft 219 kts 168°
2026-05-04 14:11 45.51696 8.76261 6749 ft 220 kts 208°
2026-05-04 14:11 45.50677 8.74648 7359 ft 227 kts 248°
2026-05-04 14:12 45.50537 8.72387 8041 ft 233 kts 276°
2026-05-04 14:12 45.50924 8.70111 8603 ft 240 kts 287°
2026-05-04 14:12 45.52726 8.66028 9728 ft 250 kts 303°
2026-05-04 14:13 45.53757 8.64013 10239 ft 253 kts 302°
2026-05-04 14:13 45.54797 8.61977 10736 ft 254 kts 302°
2026-05-04 14:13 45.55835 8.59943 11267 ft 254 kts 302°
2026-05-04 14:13 45.56881 8.57897 11734 ft 256 kts 302°
2026-05-04 14:14 45.57926 8.55838 12215 ft 256 kts 300°
2026-05-04 14:14 45.59741 8.51511 13189 ft 253 kts 291°
2026-05-04 14:14 45.60481 8.49232 13692 ft 252 kts 288°
2026-05-04 14:15 45.61746 8.44584 14538 ft 253 kts 284°
2026-05-04 14:15 45.62823 8.39791 15261 ft 256 kts 281°
2026-05-04 14:16 45.63744 8.34639 15509 ft 280 kts 279°
2026-05-04 14:16 45.64218 8.31842 15642 ft 300 kts 279°
2026-05-04 14:17 45.65250 8.25595 15919 ft 344 kts 279°
2026-05-04 14:17 45.65810 8.22165 16073 ft 364 kts 279°
2026-05-04 14:17 45.66995 8.14894 16886 ft 381 kts 279°
2026-05-04 14:18 45.67598 8.11186 17460 ft 385 kts 279°
2026-05-04 14:18 45.68813 8.03668 18545 ft 391 kts 279°
2026-05-04 14:19 45.70038 7.96040 19559 ft 396 kts 279°
2026-05-04 14:19 45.70649 7.92177 19991 ft 400 kts 279°
2026-05-04 14:19 45.71262 7.88281 20389 ft 403 kts 279°
2026-05-04 14:19 45.71879 7.84361 20595 ft 407 kts 279°
2026-05-04 14:20 45.72501 7.80407 21024 ft 407 kts 279°
2026-05-04 14:20 45.73116 7.76492 21451 ft 410 kts 279°
2026-05-04 14:20 45.73744 7.72490 21858 ft 414 kts 279°
2026-05-04 14:21 45.75013 7.64388 22818 ft 420 kts 279°
2026-05-04 14:21 45.75653 7.60289 23307 ft 423 kts 279°
2026-05-04 14:21 45.76297 7.56150 23784 ft 427 kts 279°
2026-05-04 14:21 45.76945 7.51978 24226 ft 430 kts 279°
2026-05-04 14:22 45.77594 7.47790 24665 ft 433 kts 279°
2026-05-04 14:22 45.78253 7.43621 25135 ft 437 kts 280°
2026-05-04 14:22 45.79140 7.39429 25608 ft 443 kts 288°
2026-05-04 14:22 45.80498 7.35422 26023 ft 452 kts 298°
2026-05-04 14:23 45.84836 7.28747 26848 ft 468 kts 319°
2026-05-04 14:23 45.87494 7.26005 27235 ft 472 kts 323°
2026-05-04 14:23 45.90238 7.23379 27683 ft 476 kts 324°
2026-05-04 14:24 45.93017 7.20732 28117 ft 479 kts 323°
2026-05-04 14:24 45.95752 7.18073 28503 ft 482 kts 322°
2026-05-04 14:24 45.98516 7.15317 28842 ft 485 kts 322°
2026-05-04 14:24 46.01287 7.12505 29251 ft 488 kts 321°
2026-05-04 14:25 46.04059 7.09663 29667 ft 490 kts 321°
2026-05-04 14:25 46.09644 7.03902 30377 ft 496 kts 321°
2026-05-04 14:25 46.12445 7.01009 30803 ft 495 kts 321°
2026-05-04 14:26 46.15236 6.98126 31276 ft 493 kts 321°
2026-05-04 14:26 46.18013 6.95256 31731 ft 491 kts 321°
2026-05-04 14:26 46.20787 6.92386 32179 ft 489 kts 320°
2026-05-04 14:26 46.23540 6.89534 32595 ft 487 kts 320°
2026-05-04 14:27 46.26290 6.86681 33010 ft 485 kts 320°
2026-05-04 14:27 46.29030 6.83834 33411 ft 484 kts 320°
2026-05-04 14:27 46.31758 6.80997 33821 ft 482 kts 320°
2026-05-04 14:27 46.34484 6.78157 33915 ft 482 kts 319°
2026-05-04 14:28 46.39934 6.72467 33933 ft 484 kts 320°
2026-05-04 14:28 46.45298 6.66675 33934 ft 481 kts 314°
2026-05-04 14:29 46.54541 6.52893 33935 ft 476 kts 308°
2026-05-04 14:30 46.59071 6.45846 33949 ft 477 kts 308°
2026-05-04 14:31 46.65938 6.35308 33923 ft 479 kts 308°
2026-05-04 14:32 46.75117 6.21207 34029 ft 479 kts 308°
2026-05-04 14:32 46.79702 6.14131 34024 ft 479 kts 308°
2026-05-04 14:33 46.84258 6.07078 34018 ft 481 kts 308°
2026-05-04 14:33 46.88853 5.99948 34015 ft 482 kts 308°
2026-05-04 14:34 46.93459 5.92804 34011 ft 483 kts 309°
2026-05-04 14:34 46.98892 5.86836 34007 ft 495 kts 326°
2026-05-04 14:35 47.05068 5.82242 34011 ft 499 kts 329°
2026-05-04 14:35 47.11256 5.77755 34007 ft 499 kts 328°
2026-05-04 14:36 47.17421 5.73065 34010 ft 498 kts 328°
2026-05-04 14:36 47.23551 5.68292 34007 ft 498 kts 327°
2026-05-04 14:37 47.29681 5.63496 34010 ft 500 kts 327°
2026-05-04 14:37 47.35825 5.58684 34003 ft 500 kts 327°
2026-05-04 14:38 47.41970 5.53864 34001 ft 500 kts 327°
2026-05-04 14:38 47.48117 5.49030 33999 ft 500 kts 327°
2026-05-04 14:39 47.53928 5.43508 33994 ft 491 kts 313°
2026-05-04 14:39 47.58226 5.35937 33998 ft 480 kts 298°
2026-05-04 14:40 47.63770 5.23550 33991 ft 481 kts 298°
2026-05-04 14:40 47.67641 5.15428 33980 ft 482 kts 300°
2026-05-04 14:41 47.71578 5.07411 33978 ft 484 kts 300°
2026-05-04 14:42 47.79493 4.91280 33962 ft 482 kts 300°
2026-05-04 14:42 47.83431 4.83190 33966 ft 482 kts 300°
2026-05-04 14:43 47.87362 4.75091 33955 ft 482 kts 300°
2026-05-04 14:43 47.91288 4.66977 33960 ft 482 kts 300°
2026-05-04 14:44 47.95194 4.58880 33960 ft 482 kts 300°
2026-05-04 14:44 47.99110 4.50741 33956 ft 483 kts 300°
2026-05-04 14:45 48.03038 4.42541 33949 ft 482 kts 300°
2026-05-04 14:45 48.06908 4.34359 33951 ft 482 kts 300°
2026-05-04 14:46 48.10759 4.26228 33953 ft 482 kts 300°
2026-05-04 14:46 48.14642 4.18048 33957 ft 482 kts 300°
2026-05-04 14:47 48.18522 4.09862 33962 ft 482 kts 300°
2026-05-04 14:47 48.22403 4.01652 33965 ft 482 kts 300°
2026-05-04 14:48 48.25914 3.95098 33967 ft 487 kts 307°
2026-05-04 14:48 48.30585 3.87677 33966 ft 489 kts 309°
2026-05-04 14:49 48.35316 3.80342 33961 ft 489 kts 309°
2026-05-04 14:49 48.40015 3.72939 33946 ft 489 kts 308°
2026-05-04 14:50 48.44686 3.65499 33945 ft 489 kts 308°
2026-05-04 14:50 48.49357 3.58029 33945 ft 489 kts 308°
2026-05-04 14:51 48.54026 3.50534 33947 ft 489 kts 308°
2026-05-04 14:51 48.58682 3.43038 33950 ft 488 kts 308°
2026-05-04 14:52 48.63326 3.35547 33953 ft 489 kts 308°
2026-05-04 14:52 48.67971 3.28038 33950 ft 489 kts 308°
2026-05-04 14:53 48.72616 3.20506 33949 ft 489 kts 308°
2026-05-04 14:53 48.77253 3.12961 33954 ft 489 kts 308°
2026-05-04 14:54 48.81875 3.05396 33971 ft 488 kts 308°
2026-05-04 14:54 48.87115 2.98730 33950 ft 497 kts 324°
2026-05-04 14:55 48.93147 2.93506 33951 ft 500 kts 328°
2026-05-04 14:55 48.99218 2.88470 33951 ft 499 kts 327°
2026-05-04 14:56 49.05271 2.83239 33946 ft 499 kts 326°
2026-05-04 14:56 49.11237 2.77962 33960 ft 499 kts 326°
2026-05-04 14:57 49.17238 2.72624 33959 ft 499 kts 326°
2026-05-04 14:57 49.23236 2.67281 33944 ft 499 kts 326°
2026-05-04 14:58 49.29236 2.61926 33944 ft 499 kts 326°
2026-05-04 14:58 49.35222 2.56564 33946 ft 499 kts 326°
2026-05-04 14:59 49.41203 2.51194 33943 ft 499 kts 326°
2026-05-04 15:00 49.50171 2.43061 33943 ft 498 kts 323°
2026-05-04 15:00 49.55246 2.36066 33938 ft 487 kts 305°
2026-05-04 15:01 49.61408 2.23645 33964 ft 486 kts 303°
2026-05-04 15:01 49.65555 2.15417 33944 ft 485 kts 304°
2026-05-04 15:02 49.69776 2.07280 33940 ft 485 kts 304°
2026-05-04 15:02 49.73980 1.99214 33940 ft 485 kts 304°
2026-05-04 15:03 49.78202 1.91080 33949 ft 485 kts 304°
2026-05-04 15:03 49.82425 1.82912 33949 ft 485 kts 304°
2026-05-04 15:04 49.86637 1.74735 33954 ft 485 kts 304°
2026-05-04 15:04 49.90837 1.66555 33955 ft 485 kts 304°
2026-05-04 15:05 49.95034 1.58358 33961 ft 485 kts 304°
2026-05-04 15:05 49.99469 1.50438 33963 ft 488 kts 312°
2026-05-04 15:06 50.04538 1.43371 33966 ft 490 kts 316°
2026-05-04 15:07 50.12315 1.33020 33977 ft 491 kts 316°
2026-05-04 15:07 50.17473 1.26001 33970 ft 491 kts 316°
2026-05-04 15:08 50.22569 1.19000 33979 ft 491 kts 315°
2026-05-04 15:08 50.27685 1.11946 33980 ft 490 kts 315°
2026-05-04 15:09 50.32802 1.04872 33977 ft 490 kts 315°
2026-05-04 15:09 50.37914 0.97786 33980 ft 490 kts 315°
2026-05-04 15:10 50.45553 0.87209 33532 ft 482 kts 316°
2026-05-04 15:10 50.50644 0.80384 32395 ft 480 kts 317°
2026-05-04 15:11 50.53197 0.76999 31793 ft 481 kts 317°
2026-05-04 15:11 50.55755 0.73604 31194 ft 481 kts 317°
2026-05-04 15:11 50.58311 0.70203 30575 ft 481 kts 317°
2026-05-04 15:11 50.60864 0.66800 29944 ft 482 kts 317°
2026-05-04 15:12 50.63422 0.63385 29259 ft 482 kts 317°
2026-05-04 15:12 50.65978 0.59965 28569 ft 480 kts 317°
2026-05-04 15:12 50.68509 0.56578 27920 ft 473 kts 317°
2026-05-04 15:12 50.70975 0.53273 27294 ft 469 kts 317°
2026-05-04 15:13 50.73467 0.49926 26681 ft 465 kts 317°
2026-05-04 15:13 50.75916 0.46633 26065 ft 461 kts 317°
2026-05-04 15:13 50.78349 0.43355 25445 ft 458 kts 316°
2026-05-04 15:13 50.80754 0.40094 24819 ft 454 kts 316°
2026-05-04 15:14 50.83143 0.36847 24169 ft 450 kts 316°
2026-05-04 15:14 50.85491 0.33652 23530 ft 446 kts 316°
2026-05-04 15:14 50.87830 0.30470 22805 ft 441 kts 316°
2026-05-04 15:14 50.90144 0.27319 22132 ft 436 kts 316°
2026-05-04 15:15 50.92430 0.24206 21511 ft 431 kts 317°
2026-05-04 15:15 50.94689 0.21124 21078 ft 427 kts 317°
2026-05-04 15:15 50.96939 0.18051 20698 ft 425 kts 317°
2026-05-04 15:16 51.01419 0.12080 20072 ft 421 kts 321°
2026-05-04 15:16 51.03777 0.09317 20029 ft 421 kts 322°
2026-05-04 15:16 51.08586 0.03984 20003 ft 421 kts 323°
2026-05-04 15:17 51.10997 0.01334 19982 ft 421 kts 323°
2026-05-04 15:17 51.15813 -0.03992 20019 ft 421 kts 323°
2026-05-04 15:17 51.18219 -0.06669 20021 ft 421 kts 323°
2026-05-04 15:18 51.20620 -0.09349 20017 ft 421 kts 323°
2026-05-04 15:18 51.23018 -0.12030 20021 ft 421 kts 323°
2026-05-04 15:18 51.25417 -0.14717 20021 ft 421 kts 323°
2026-05-04 15:19 51.30219 -0.20107 20017 ft 421 kts 323°
2026-05-04 15:19 51.32620 -0.22807 20010 ft 421 kts 323°
2026-05-04 15:19 51.37411 -0.28198 20018 ft 421 kts 323°
2026-05-04 15:20 51.39880 -0.30624 20015 ft 422 kts 332°
2026-05-04 15:20 51.42587 -0.32221 20013 ft 405 kts 347°
2026-05-04 15:20 51.45316 -0.32586 20003 ft 385 kts
2026-05-04 15:20 51.47874 -0.31810 19990 ft 365 kts 18°
2026-05-04 15:21 51.50172 -0.30300 19986 ft 353 kts 26°
2026-05-04 15:21 51.52365 -0.28547 19990 ft 351 kts 27°
2026-05-04 15:21 51.56717 -0.24973 19955 ft 352 kts 27°
2026-05-04 15:22 51.58907 -0.23219 19839 ft 350 kts 26°
2026-05-04 15:22 51.61089 -0.21499 19644 ft 349 kts 26°
2026-05-04 15:22 51.65453 -0.18102 19303 ft 347 kts 26°
2026-05-04 15:23 51.67643 -0.16406 18840 ft 349 kts 26°
2026-05-04 15:23 51.69835 -0.14710 18292 ft 349 kts 26°
2026-05-04 15:23 51.72024 -0.13015 17705 ft 349 kts 26°
2026-05-04 15:23 51.74205 -0.11333 17121 ft 344 kts 25°
2026-05-04 15:24 51.78341 -0.08342 16016 ft 336 kts 23°
2026-05-04 15:24 51.82633 -0.05330 14914 ft 336 kts 22°
2026-05-04 15:25 51.84781 -0.03824 14377 ft 336 kts 22°
2026-05-04 15:25 51.86919 -0.02322 13832 ft 334 kts 22°
2026-05-04 15:25 51.89052 -0.00823 13247 ft 332 kts 22°
2026-05-04 15:26 51.93132 0.02058 12116 ft 308 kts 21°
2026-05-04 15:26 51.95067 0.03425 11538 ft 300 kts 21°
2026-05-04 15:26 51.98885 0.05868 10463 ft 289 kts
2026-05-04 15:27 52.00859 0.06262 9938 ft 283 kts
2026-05-04 15:27 52.04786 0.06524 8791 ft 285 kts 359°
2026-05-04 15:28 52.08680 0.06724 7925 ft 271 kts
2026-05-04 15:28 52.10493 0.06622 7704 ft 257 kts 344°
2026-05-04 15:28 52.13173 0.02895 7608 ft 266 kts 289°
2026-05-04 15:29 52.13417 -0.00040 7544 ft 264 kts 262°
2026-05-04 15:30 52.08150 -0.05196 7253 ft 239 kts 180°
2026-05-04 15:30 52.03690 -0.05310 7094 ft 239 kts 185°
2026-05-04 15:31 52.00478 -0.04309 6743 ft 248 kts 158°
2026-05-04 15:31 51.98852 -0.03113 6227 ft 255 kts 159°
2026-05-04 15:32 51.94349 0.00050 4609 ft 223 kts 158°
2026-05-04 15:32 51.91550 0.02005 3555 ft 216 kts 157°
2026-05-04 15:33 51.88820 0.03914 2728 ft 213 kts 155°
2026-05-04 15:34 51.85004 0.06577 1793 ft 185 kts 153°
2026-05-04 15:34 51.83820 0.07409 1798 ft 186 kts 154°
2026-05-04 15:34 51.81914 0.09915 1765 ft 175 kts 105°
2026-05-04 15:35 51.82331 0.13357 1809 ft 157 kts 45°
2026-05-04 15:35 51.83058 0.14696 1712 ft 162 kts 52°
2026-05-04 15:35 51.83665 0.16227 1369 ft 161 kts 47°
2026-05-04 15:36 51.85292 0.18645 1021 ft 158 kts 41°
2026-05-04 15:36 51.86094 0.19873 808 ft 159 kts 40°
2026-05-04 15:36 51.86900 0.21082 586 ft 161 kts 41°
2026-05-04 15:37 51.87728 0.22324 376 ft 162 kts 40°
2026-05-04 15:37 51.88452 0.23405 355 ft 118 kts 43°
2026-05-04 15:37 51.88886 0.24057 354 ft 59 kts 43°
2026-05-04 15:37 51.89071 0.24425 354 ft 37 kts 65°
2026-05-04 15:38 51.89157 0.24754 351 ft 14 kts 69°
2026-05-04 15:38 51.89169 0.24813 356 ft 1 kts 82°
2026-05-04 15:38 51.89159 0.24869 363 ft 8 kts 122°
2026-05-04 15:38 51.89120 0.24882 363 ft 6 kts 198°
2026-05-04 15:39 51.89072 0.24824 364 ft 11 kts 222°
2026-05-04 15:39 51.89004 0.24721 363 ft 16 kts 223°
2026-05-04 15:39 51.88835 0.24466 361 ft 16 kts 222°
2026-05-04 15:40 51.88752 0.24343 357 ft 16 kts 222°
2026-05-04 15:40 51.88673 0.24226 364 ft 15 kts 222°
2026-05-04 15:40 51.88603 0.24120 362 ft 13 kts 223°
2026-05-04 15:40 51.88536 0.24020 364 ft 12 kts 221°
2026-05-04 15:41 51.88483 0.24016 358 ft 6 kts 158°
2026-05-04 15:41 51.88451 0.24056 363 ft 6 kts 134°
2026-05-04 15:41 51.88429 0.24116 364 ft 6 kts 101°
2026-05-04 15:41 51.88450 0.24187 364 ft 10 kts 48°
2026-05-04 15:42 51.88514 0.24282 365 ft 12 kts 43°
2026-05-04 15:42 51.88531 0.24356 356 ft 6 kts 101°
2026-05-04 15:42 51.88511 0.24416 361 ft 4 kts 121°
2026-05-04 15:42 51.88507 0.24463 356 ft 4 kts 80°
2026-05-04 15:43 51.88521 0.24498 356 ft 4 kts 51°
2026-05-04 15:43 51.88536 0.24522 361 ft 2 kts 44°
2026-05-04 15:43 51.88544 0.24534 356 ft 1 kts 43°
2026-05-04 15:43 51.88551 0.24546 356 ft 2 kts 43°
2026-05-04 15:44 51.88555 0.24551 356 ft 0 kts 43°